Litchfield, IL

1:03 PM CST on December 17, 2017 (GMT -0600)
Litchfield

Weather History for K3LF - October, 2013

Change the Weather History Date:

Sunday, October 27, 2013

  Actual Average (KALN) Record (KALN)
Temperature  
Mean Temperature 41 °F -  
Max Temperature 57 °F 63 °F 84 °F (1999)
Min Temperature 26 °F 44 °F 28 °F (2013)
Degree Days  
Heating Degree Days 24    
Moisture  
Dew Point 28 °F    
Average Humidity 66    
Maximum Humidity 93    
Minimum Humidity 33    
Precipitation  
Precipitation 0.00 in - - ()
Sea Level Pressure  
Sea Level Pressure 30.08 in    
Wind  
Wind Speed 2 mph (SSW)    
Max Wind Speed 9 mph    
Max Gust Speed 23 mph    
Visibility 10 miles    
Events      
Averages and records for this station are not official NWS values.
T = Trace of Precipitation, MM = Missing Value Source: NWS Daily Summary

Daily Weather History Graph

Daily Weather History Graph

Search for Another Location

Airport or City:

Trip Planner

Search our weather history database for the weather conditions in past years. The results will help you decide how hot, cold, wet, or windy it might be!

Date:

Astronomy

Oct. 27, 2013 Rise Set
Actual Time 7:21 AM CDT 6:03 PM CDT
Civil Twilight 6:53 AM CDT 6:30 PM CDT
Nautical Twilight 6:22 AM CDT 7:02 PM CDT
Astronomical Twilight 5:51 AM CDT 7:33 PM CDT
Moon 12:21 AM CDT (10/27) 2:09 PM CDT (10/27)
Length of Visible Light 11h 37m
Length of Day
10h 42m
Last Quarter, 43% of the Moon is Illuminated
Oct 27
Last Quarter
Nov 3
New
Nov 9
First Quarter
Nov 17
Full
Nov 25
Last Quarter

Hourly Weather History & Observations

Time (CDT) Temp. Windchill Dew Point Humidity Pressure Visibility Wind Dir Wind Speed Gust Speed Precip Events Conditions
12:15 AM 33.8 °F 30.8 °F 26.1 °F 73% 30.11 in 10.0 mi NNW 3.5 mph - N/A   Clear
12:35 AM 32.0 °F 26.4 °F 26.4 °F 80% 30.11 in 10.0 mi NNW 5.8 mph - N/A   Clear
12:55 AM 32.0 °F 26.4 °F 25.9 °F 78% 30.11 in 10.0 mi NNW 5.8 mph - N/A   Clear
1:15 AM 32.4 °F - 25.7 °F 76% 30.11 in 10.0 mi Calm Calm - N/A   Clear
1:35 AM 29.5 °F - 24.6 °F 82% 30.11 in 10.0 mi Calm Calm - N/A   Clear
1:55 AM 30.9 °F - 25.5 °F 80% 30.11 in 10.0 mi Calm Calm - N/A   Clear
2:15 AM 29.1 °F - 25.0 °F 85% 30.10 in 10.0 mi Calm Calm - N/A   Clear
2:35 AM 30.2 °F - 25.7 °F 83% 30.09 in 10.0 mi Calm Calm - N/A   Clear
2:55 AM 30.0 °F - 25.5 °F 83% 30.09 in 10.0 mi Calm Calm - N/A   Clear
3:15 AM 30.6 °F - 25.3 °F 81% 30.09 in 10.0 mi Calm Calm - N/A   Clear
3:35 AM 29.7 °F - 25.2 °F 83% 30.09 in 10.0 mi Calm Calm - N/A   Clear
3:55 AM 30.6 °F - 25.7 °F 82% 30.09 in 10.0 mi Calm Calm - N/A   Clear
4:15 AM 29.1 °F - 25.9 °F 88% 30.09 in 10.0 mi Calm Calm - N/A   Clear
4:35 AM 28.9 °F - 26.4 °F 90% 30.09 in 10.0 mi Calm Calm - N/A   Clear
4:55 AM 28.9 °F - 26.6 °F 91% 30.09 in 10.0 mi Calm Calm - N/A   Clear
5:15 AM 28.6 °F - 26.4 °F 92% 30.09 in 10.0 mi Calm Calm - N/A   Clear
5:35 AM 28.8 °F - 26.4 °F 91% 30.10 in 10.0 mi Calm Calm - N/A   Clear
5:55 AM 27.5 °F - 25.7 °F 93% 30.10 in 10.0 mi Calm Calm - N/A   Clear
6:15 AM 26.2 °F - 24.4 °F 93% 30.10 in 10.0 mi Calm Calm - N/A   Clear
6:35 AM 27.1 °F - 25.0 °F 92% 30.11 in 10.0 mi Calm Calm - N/A   Clear
6:55 AM 27.9 °F - 25.3 °F 90% 30.11 in 10.0 mi Calm Calm - N/A   Clear
7:15 AM 28.0 °F - 25.3 °F 90% 30.11 in 10.0 mi Calm Calm - N/A   Clear
7:35 AM 27.5 °F - 25.3 °F 92% 30.11 in 10.0 mi Calm Calm - N/A   Clear
7:55 AM 28.0 °F - 25.7 °F 91% 30.11 in 10.0 mi Calm Calm - N/A   Clear
8:15 AM 29.3 °F - 27.1 °F 92% 30.12 in 10.0 mi Calm Calm - N/A   Clear
8:35 AM 32.2 °F - 28.8 °F 87% 30.12 in 10.0 mi Calm Calm - N/A   Clear
8:55 AM 36.5 °F - 31.1 °F 81% 30.12 in 10.0 mi Calm Calm - N/A   Clear
9:15 AM 39.6 °F - 31.5 °F 73% 30.12 in 10.0 mi Calm Calm - N/A   Clear
9:35 AM 41.9 °F - 31.6 °F 67% 30.13 in 10.0 mi Calm Calm - N/A   Clear
9:55 AM 44.8 °F - 32.5 °F 62% 30.13 in 10.0 mi Calm Calm - N/A   Clear
10:15 AM 46.9 °F - 31.3 °F 55% 30.13 in 10.0 mi Calm Calm - N/A   Clear
10:35 AM 49.1 °F - 30.6 °F 49% 30.13 in 10.0 mi SSW 3.5 mph - N/A   Clear
10:55 AM 50.2 °F - 29.1 °F 44% 30.13 in 10.0 mi SSW 5.8 mph - N/A   Clear
11:15 AM 51.1 °F - 28.0 °F 41% 30.13 in 10.0 mi SSW 6.9 mph - N/A   Clear
11:35 AM 51.3 °F - 27.7 °F 40% 30.13 in 10.0 mi SSW 4.6 mph - N/A   Clear
11:55 AM 51.4 °F - 27.1 °F 39% 30.12 in 10.0 mi WSW 4.6 mph - N/A   Clear
12:15 PM 52.9 °F - 28.0 °F 38% 30.11 in 10.0 mi Calm Calm - N/A   Clear
12:35 PM 54.0 °F - 28.2 °F 37% 30.10 in 10.0 mi SSW 6.9 mph 23.0 mph N/A   Clear
12:55 PM 54.1 °F - 27.3 °F 36% 30.09 in 10.0 mi SSW 9.2 mph - N/A   Clear
1:15 PM 54.5 °F - 27.5 °F 35% 30.08 in 10.0 mi SW 6.9 mph - N/A   Clear
1:35 PM 55.2 °F - 27.5 °F 34% 30.07 in 10.0 mi West 6.9 mph - N/A   Clear
1:55 PM 55.0 °F - 27.7 °F 35% 30.06 in 10.0 mi WSW 4.6 mph - N/A   Clear
2:15 PM 55.6 °F - 27.0 °F 33% 30.05 in 10.0 mi West 4.6 mph - N/A   Clear
2:35 PM 55.8 °F - 26.8 °F 33% 30.04 in 10.0 mi SSW 5.8 mph - N/A   Clear
2:55 PM 55.9 °F - 28.0 °F 34% 30.04 in 10.0 mi SSE 5.8 mph - N/A   Clear
3:15 PM 56.3 °F - 27.5 °F 33% 30.04 in 10.0 mi South 4.6 mph - N/A   Clear
3:35 PM 56.8 °F - 28.0 °F 33% 30.04 in 10.0 mi SW 8.1 mph - N/A   Clear
3:55 PM 56.8 °F - 27.7 °F 33% 30.04 in 10.0 mi SSW 5.8 mph - N/A   Clear
4:15 PM 56.7 °F - 28.0 °F 33% 30.04 in 10.0 mi SW 9.2 mph - N/A   Clear
4:35 PM 56.3 °F - 28.2 °F 34% 30.04 in 10.0 mi SW 6.9 mph - N/A   Clear
4:55 PM 55.6 °F - 27.5 °F 34% 30.03 in 10.0 mi SSW 4.6 mph - N/A   Clear
5:15 PM 55.0 °F - 28.6 °F 36% 30.03 in 10.0 mi SW 4.6 mph - N/A   Clear
5:35 PM 53.2 °F - 28.9 °F 39% 30.03 in 10.0 mi South 3.5 mph - N/A   Clear
5:55 PM 50.9 °F - 28.9 °F 43% 30.03 in 10.0 mi South 4.6 mph - N/A   Clear
6:15 PM 46.9 °F - 29.3 °F 50% 30.03 in 10.0 mi South 4.6 mph - N/A   Clear
6:35 PM 43.5 °F 40.9 °F 29.7 °F 58% 30.03 in 10.0 mi South 4.6 mph - N/A   Clear
6:55 PM 42.3 °F 38.6 °F 29.3 °F 60% 30.03 in 10.0 mi South 5.8 mph - N/A   Clear
7:15 PM 39.2 °F 35.9 °F 28.4 °F 65% 30.03 in 10.0 mi SSE 4.6 mph - N/A   Clear
7:35 PM 39.9 °F 37.8 °F 28.8 °F 64% 30.03 in 10.0 mi SSE 3.5 mph - N/A   Clear
7:55 PM 39.2 °F - 28.6 °F 66% 30.04 in 10.0 mi Calm Calm - N/A   Clear
8:15 PM 39.6 °F - 29.7 °F 68% 30.04 in 10.0 mi Calm Calm - N/A   Clear
8:35 PM 38.8 °F - 30.7 °F 73% 30.04 in 10.0 mi Calm Calm - N/A   Clear
8:55 PM 37.8 °F - 30.6 °F 75% 30.04 in 10.0 mi Calm Calm - N/A   Clear
9:15 PM 37.4 °F - 30.2 °F 75% 30.04 in 10.0 mi Calm Calm - N/A   Clear
9:35 PM 36.5 °F - 30.0 °F 77% 30.05 in 10.0 mi Calm Calm - N/A   Clear
9:55 PM 35.8 °F 33.0 °F 30.0 °F 80% 30.05 in 10.0 mi SE 3.5 mph - N/A   Clear
10:15 PM 35.6 °F 31.7 °F 31.5 °F 85% 30.05 in 10.0 mi SE 4.6 mph - N/A   Clear
10:35 PM 35.8 °F 33.0 °F 30.9 °F 82% 30.06 in 10.0 mi SE 3.5 mph - N/A   Clear
10:55 PM 34.9 °F 32.0 °F 30.7 °F 85% 30.06 in 10.0 mi SE 3.5 mph - N/A   Clear
11:15 PM 35.1 °F 32.2 °F 29.8 °F 81% 30.06 in 10.0 mi SE 3.5 mph - N/A   Clear
11:35 PM 34.7 °F 31.8 °F 29.3 °F 81% 30.06 in 10.0 mi SE 3.5 mph - N/A   Clear
11:55 PM 35.8 °F 31.9 °F 28.9 °F 76% 30.06 in 10.0 mi SE 4.6 mph - N/A   Clear